Terug naar catalogus

NOAA 16 DEB

ActiefSSO
NORAD 41153·DEBRIS·🇺🇸 United States

Gelanceerd Sep 21, 2000 vanaf Vandenberg Space Force Base

Loading…

Volgende Passages (komende 24 uur)

TLE

VersSource: Space-Track

Epoch: Sep 14, 2026, 13:20 UTC

1 41153U 00055CL  26257.55623835  .00003741  00000-0  12218-2 0  9994
2 41153  98.7959  15.7186 0016140 230.4488 129.5273 14.39121574559568

Volg NOAA 16 DEB in realtime met AllMySat

Download on the App Store